Weather History for Birmingham, AL

Change the Weather History Date:

Tuesday, May 22, 2012

  Actual Average Record
Temperature  
Mean Temperature 70 °F 72 °F  
Max Temperature 79 °F 83 °F 96 °F (1962)
Min Temperature 61 °F 62 °F 42 °F (1993)
Cooling Degree Days 5 8  
Month to date cooling degree days 168 121  
Year to date cooling degree days 396 205  
Growing Degree Days 19 (Base 50)    
Moisture  
Dew Point 60 °F    
Average Humidity 76    
Maximum Humidity 100    
Minimum Humidity 52    
Precipitation  
Precipitation 0.16 in 0.15 in 2.54 in (1939)
Month to date precipitation 4.82 3.59  
Year to date precipitation 19.66 22.57  
Sea Level Pressure  
Sea Level Pressure 29.95 in    
Wind  
Wind Speed 4 mph (NNW)    
Max Wind Speed 18 mph    
Max Gust Speed 25 mph    
Visibility 10 miles    
Events Rain , Thunderstorm    
T = Trace of Precipitation, MM = Missing Value Source: NWS Daily Summary

Daily Weather History Graph

Daily Weather History Graph

Search for Another Location

Airport:

Trip Planner

Search our weather history database for the weather conditions in past years. The results will help you decide how hot, cold, wet, or windy it might be!

Date:

Astronomy

May. 22, 2012 Rise Set
Actual Time 5:41 AM CDT 7:45 PM CDT
Civil Twilight 5:13 AM CDT 8:13 PM CDT
Nautical Twilight 4:39 AM CDT 8:48 PM CDT
Astronomical Twilight 4:03 AM CDT 9:24 PM CDT
Moon 6:53 AM CDT (5/22) 9:22 PM CDT (5/22)
Length of Visible Light 15h 00m
Length of Day
14h 04m
Waxing Crescent, 3% of the Moon is Illuminated
May 22
Waxing Crescent
May 28
First Quarter
Jun 4
Full
Jun 11
Last Quarter
Jun 19
New

Hourly Weather History & Observations

Time (CDT) Temp. Dew Point Humidity Pressure Visibility Wind Dir Wind Speed Gust Speed Precip Events Conditions
12:53 AM 66.9 °F 57.0 °F 70% 30.02 in 10.0 mi NNE 13.8 mph - 0.00 in Rain Light Rain
12:57 AM 66.2 °F 57.2 °F 73% 30.04 in 10.0 mi North 12.7 mph - 0.00 in Rain , Thunderstorm Light Thunderstorms and Rain
1:41 AM 62.6 °F 59.0 °F 88% 30.05 in 10.0 mi WNW 3.5 mph - 0.03 in Rain Light Rain
1:53 AM 64.0 °F 59.0 °F 84% 30.01 in 10.0 mi Calm Calm - 0.03 in Rain Light Rain
2:53 AM 63.0 °F 61.0 °F 93% 29.98 in 6.0 mi Calm Calm - 0.08 in Rain , Thunderstorm Thunderstorms and Rain
3:24 AM 62.6 °F 57.2 °F 82% 29.92 in 10.0 mi ENE 5.8 mph - 0.05 in Rain Light Rain
3:53 AM 62.6 °F 59.0 °F 88% 29.91 in 10.0 mi SE 5.8 mph - N/A   Clear
4:53 AM 62.1 °F 59.0 °F 90% 29.94 in 10.0 mi NW 9.2 mph - N/A   Clear
5:53 AM 61.0 °F 59.0 °F 93% 29.96 in 10.0 mi Calm Calm - N/A   Clear
6:28 AM 60.8 °F 59.0 °F 94% 29.99 in 10.0 mi Calm Calm - N/A   Scattered Clouds
6:53 AM 61.0 °F 60.1 °F 97% 29.98 in 5.0 mi WNW 3.5 mph - N/A   Partly Cloudy
7:09 AM 60.8 °F 60.8 °F 100% 30.00 in 10.0 mi West 5.8 mph - N/A   Mostly Cloudy
7:53 AM 62.1 °F 60.1 °F 93% 29.99 in 9.0 mi WNW 4.6 mph - N/A   Overcast
8:37 AM 64.4 °F 60.8 °F 88% 30.01 in 10.0 mi West 6.9 mph - N/A   Overcast
8:53 AM 64.9 °F 60.1 °F 84% 29.99 in 10.0 mi NW 5.8 mph - N/A   Overcast
9:53 AM 66.9 °F 61.0 °F 81% 29.99 in 10.0 mi Variable 5.8 mph - N/A   Overcast
10:20 AM 69.8 °F 62.6 °F 78% 30.00 in 10.0 mi North 6.9 mph - N/A   Mostly Cloudy
10:53 AM 71.1 °F 61.0 °F 70% 29.98 in 10.0 mi NNW 3.5 mph - N/A   Overcast
11:07 AM 71.6 °F 60.8 °F 69% 29.99 in 10.0 mi Variable 5.8 mph - N/A   Mostly Cloudy
11:53 AM 75.9 °F 62.1 °F 62% 29.96 in 10.0 mi NNW 5.8 mph - N/A   Scattered Clouds
12:53 PM 75.0 °F 59.0 °F 57% 29.95 in 10.0 mi NW 8.1 mph - N/A   Mostly Cloudy
1:53 PM 78.1 °F 61.0 °F 56% 29.93 in 10.0 mi North 5.8 mph - N/A   Partly Cloudy
2:53 PM 77.0 °F 60.1 °F 56% 29.91 in 10.0 mi North 8.1 mph - N/A   Overcast
3:53 PM 77.0 °F 59.0 °F 54% 29.89 in 10.0 mi NW 8.1 mph - N/A   Scattered Clouds
4:53 PM 78.1 °F 59.0 °F 52% 29.89 in 10.0 mi NW 6.9 mph - N/A   Partly Cloudy
5:53 PM 78.1 °F 59.0 °F 52% 29.88 in 10.0 mi NNW 5.8 mph - N/A   Partly Cloudy
6:53 PM 75.9 °F 61.0 °F 60% 29.88 in 10.0 mi North 4.6 mph - N/A   Partly Cloudy
7:53 PM 72.0 °F 62.1 °F 71% 29.88 in 10.0 mi Calm Calm - N/A   Partly Cloudy
8:53 PM 69.1 °F 62.1 °F 78% 29.89 in 10.0 mi Calm Calm - N/A   Clear
9:53 PM 68.0 °F 62.1 °F 81% 29.91 in 10.0 mi Calm Calm - N/A   Clear
10:53 PM 66.0 °F 63.0 °F 90% 29.91 in 9.0 mi ESE 3.5 mph - N/A   Clear
11:53 PM 64.9 °F 62.1 °F 90% 29.91 in 9.0 mi Calm Calm - N/A   Clear